"Time","Temp","Dewpoint","Humidity","Pressure","Direction","Speed","Gust","Precip","PrecipRate"
"00:04:56","50","47.2","90","29.95","275","0","0","0.00","0.00"
"00:09:56","49.7","47.1","90.5","29.95","275","0","0","0.00","0.00"
"00:14:59","49.5","47.1","91.3","29.95","275","0","0","0.00","0.00"
"00:19:56","49.4","47.2","92","29.95","275","0","0","0.00","0.00"
"00:24:56","49.3","47.3","92.7","29.95","275","0","0","0.00","0.00"
"00:29:59","49.3","47.4","93","29.95","275","0","1.2","0.00","0.00"
"00:34:59","49.3","47.4","93","29.95","275","0","1.2","0.00","0.00"
"00:39:57","49.4","47.3","92.3","29.95","274","0.1","1.2","0.00","0.00"
"00:44:59","49.6","47.4","92","29.95","274","0.1","1.2","0.00","0.00"
"00:49:58","50","47.5","91","29.95","274","0","0","0.00","0.00"
"00:54:58","50.3","47.8","90.8","29.95","274","0","0","0.00","0.00"
"00:59:56","50.5","47.7","90","29.95","274","0","0","0.00","0.00"
"01:04:59","50.6","47.6","89.3","29.95","277","0.3","1.2","0.00","0.00"
"01:09:58","50.7","47.6","89","29.95","277","0.4","1.2","0.00","0.00"
"01:14:59","50.7","47.4","88.2","29.95","276","0.3","2","0.00","0.00"
"01:19:57","50.9","47.4","87.7","29.95","276","0.3","2.3","0.00","0.00"
"01:24:56","51.1","47.4","87","29.95","278","0.4","3.5","0.00","0.00"
"01:29:57","51.2","47.2","86.1","29.96","278","0.1","1.2","0.00","0.00"
"01:34:56","51.3","46.9","85","29.96","278","0.1","1.2","0.00","0.00"
"01:39:56","51.5","47.1","85","29.96","278","0","0","0.00","0.00"
"01:44:59","51.5","47.1","85","29.96","278","0","1","0.00","0.00"
"01:49:59","51.6","47.2","85.2","29.96","278","0.1","1.2","0.00","0.00"
"01:54:58","51.6","47.3","85.2","29.96","277","0.3","2.3","0.00","0.00"
"01:59:57","51.8","47.4","85","29.96","278","0","0","0.00","0.00"
"02:04:58","51.8","47.1","84","29.96","278","0","0","0.00","0.00"
"02:09:57","51.9","46.9","83","29.96","278","0","0","0.00","0.00"
"02:14:59","52","47","83.2","29.96","278","0","0","0.00","0.00"
"02:19:59","51.8","47.2","84.5","29.96","278","0","0","0.00","0.00"
"02:24:57","51.4","47.3","85.6","29.96","278","0","0","0.00","0.00"
"02:29:57","51.1","47.3","86.7","29.96","278","0.1","1.2","0.00","0.00"
"02:34:57","50.7","47.1","87.2","29.96","280","0.5","3.5","0.00","0.00"
"02:39:57","50.7","46.6","85.8","29.96","300","1","10.4","0.00","0.00"
"02:44:57","51.3","46.3","83","29.96","290","1.9","10.4","0.00","0.00"
"02:49:56","51.9","46","80.4","29.96","303","2.1","17","0.00","0.00"
"02:54:56","52.4","46","79","29.96","338","2.4","11.5","0.00","0.00"
"02:59:56","52.6","45.6","77.2","29.96","78","1.2","4","0.00","0.00"
"03:04:58","52.7","45.2","76","29.96","283","0.8","3.5","0.00","0.00"
"03:09:59","52.7","44.8","74.6","29.96","280","0.5","3.5","0.00","0.00"
"03:14:57","52.8","44.5","73.6","29.96","307","0.6","3.5","0.00","0.00"
"03:19:59","52.8","44.4","73.1","29.96","315","1.5","5","0.00","0.00"
"03:24:58","52.9","44.5","73","29.96","332","0.7","4.6","0.00","0.00"
"03:29:57","52.8","44.4","73.3","29.96","315","1","4","0.00","0.00"
"03:34:57","52.7","44.1","72.6","29.96","308","1.4","3.5","0.00","0.00"
"03:39:58","52.7","44.1","72.6","29.96","299","0.9","3.5","0.00","0.00"
"03:44:58","52.5","43.9","72.6","29.96","282","0.3","2.3","0.00","0.00"
"03:49:58","52.2","43.9","73.1","29.96","281","0.7","2.3","0.00","0.00"
"03:54:57","52","43.6","72.8","29.96","279","1.3","4","0.00","0.00"
"03:59:56","52","43.5","72.7","29.97","272","0.8","3.5","0.00","0.00"
"04:04:58","52","43.4","72.2","29.97","207","0.8","3","0.00","0.00"
"04:09:59","52","43.3","72.2","29.97","188","0.5","2.3","0.00","0.00"
"04:14:59","52","43.4","72.4","29.97","186","0.7","2.3","0.00","0.00"
"04:19:59","51.9","43.5","73","29.96","171","0.8","2.3","0.00","0.00"
"04:24:59","51.7","43.3","73","29.96","247","2.2","7","0.00","0.00"
"04:29:59","51.9","43.4","72.8","29.96","348","1.6","6.9","0.00","0.00"
"04:34:58","52.1","43.5","72.5","29.96","330","1.5","5","0.00","0.00"
"04:39:59","52.1","43.6","72.9","29.96","298","0.9","3.5","0.00","0.00"
"04:44:59","51.9","43.6","73.2","29.96","231","0.9","3.5","0.00","0.00"
"04:49:56","51.8","43.4","73.2","29.96","316","0.7","3.5","0.00","0.00"
"04:54:57","51.6","43.4","73.3","29.96","315","0.6","3.5","0.00","0.00"
"04:59:57","51.5","43.4","73.7","29.97","315","0.5","3.5","0.00","0.00"
"05:04:59","51.3","43.6","74.9","29.97","316","0.2","2.3","0.00","0.00"
"05:09:56","51","43.4","75.3","29.97","274","0.7","3.5","0.00","0.00"
"05:14:57","50.6","43.3","76","29.97","263","0.1","1.2","0.00","0.00"
"05:19:58","50.3","43.4","77.2","29.97","263","0.2","2.3","0.00","0.00"
"05:24:56","49.9","43.3","78","29.97","263","0.1","1.2","0.00","0.00"
"05:29:59","49.6","43","78.1","29.98","263","0.1","2","0.00","0.00"
"05:34:59","49.5","42.9","78","29.98","263","0.2","2.3","0.00","0.00"
"05:39:58","49.4","42.8","78","29.98","263","0","1.2","0.00","0.00"
"05:44:59","49.3","43","78.8","29.98","263","0.1","2.3","0.00","0.00"
"05:49:59","49.2","43","79","29.98","263","0","0","0.00","0.00"
"05:54:59","48.9","42.9","79.6","29.98","263","0","0","0.00","0.00"
"05:59:59","48.6","43","80.9","29.98","263","0","0","0.00","0.00"
"06:04:58","48.3","42.8","81.2","29.98","263","0","0","0.00","0.00"
"06:09:57","47.9","42.8","82.3","29.98","263","0","1","0.00","0.00"
"06:14:58","47.7","42.7","82.8","29.98","234","0.4","2.3","0.00","0.00"
"06:19:56","47.5","42.5","82.7","29.98","223","0","1.2","0.00","0.00"
"06:24:56","47.6","42.6","82.7","29.98","282","0.5","4","0.00","0.00"
"06:29:59","47.7","42.8","83","29.98","294","0.1","2.3","0.00","0.00"
"06:34:59","47.6","42.8","83.4","29.98","294","0","1.2","0.00","0.00"
"06:39:59","47.3","42.7","84","29.98","294","0","0","0.00","0.00"
"06:44:59","47.1","42.3","83.3","29.98","294","0.6","2.3","0.00","0.00"
"06:49:59","47.1","42.2","83","29.98","294","0","2.3","0.00","0.00"
"06:54:59","47.2","42.2","82.7","29.98","289","0.5","2.3","0.00","0.00"
"06:59:56","47.5","42.2","81.4","29.98","282","0.5","3.5","0.00","0.00"
"07:04:58","47.9","42.3","80.8","29.98","296","1","6","0.00","0.00"
"07:09:56","48.3","42.4","80.1","29.98","341","1","7","0.00","0.00"
"07:14:56","48.5","42.4","79.3","29.98","276","0.8","3.5","0.00","0.00"
"07:19:57","48.9","42.3","78","29.98","310","1.5","4","0.00","0.00"
"07:24:57","49.3","42.4","77","29.98","261","1.5","4","0.00","0.00"
"07:29:58","49.5","42.3","76.4","29.98","281","1.4","7","0.00","0.00"
"07:34:58","49.7","42.3","75.5","29.98","291","1.6","4","0.00","0.00"
"07:39:59","50","42.5","75.3","29.98","285","2.2","6","0.00","0.00"
"07:44:59","50.1","42.5","75.1","29.99","291","1.3","7","0.00","0.00"
"07:49:59","50.2","42.6","75.2","29.99","283","1.1","4","0.00","0.00"
"07:54:59","50.2","42.6","74.9","29.99","274","1.6","5","0.00","0.00"
"07:59:56","50.4","42.6","74.4","29.99","263","2.4","8.1","0.00","0.00"
"08:04:59","50.6","42.9","74.8","29.99","269","1.2","5","0.00","0.00"
"08:09:56","50.7","42.9","74.3","29.99","255","2","6","0.00","0.00"
"08:14:56","51","43","73.8","30.00","270","1.6","5","0.00","0.00"
"08:19:59","51.3","43","73.1","30.00","265","1.9","4","0.00","0.00"
"08:24:58","51.6","43.2","72.8","30.00","266","1.3","4","0.00","0.00"
"08:29:56","51.9","43.4","72.7","30.00","246","1.9","4","0.00","0.00"
"08:34:58","52.1","43.4","72.2","30.00","244","2.1","7","0.00","0.00"
"08:39:58","52.3","43.6","72.3","30.00","243","2.4","6.9","0.00","0.00"
"08:44:57","52.6","44","72.5","30.00","234","2.6","5","0.00","0.00"
"08:49:59","53.1","44.3","72","30.00","241","1.8","5","0.00","0.00"
"08:54:58","53.5","44.3","71","30.00","264","2.9","7","0.00","0.00"
"08:59:56","53.9","44.7","71","30.00","247","2.7","6","0.00","0.00"
"09:04:57","54.3","45.4","71.9","30.00","226","1.8","5.8","0.00","0.00"
"09:09:58","54.7","45.2","70.3","30.00","286","2.5","9","0.00","0.00"
"09:14:58","55.3","45.3","69.1","30.00","278","3.8","11.5","0.00","0.00"
"09:19:56","55.7","45.3","68","30.00","298","2.5","9.2","0.00","0.00"
"09:24:56","56","45.2","67.2","30.00","254","3.2","9","0.00","0.00"
"09:29:59","56.2","45.4","67.1","30.00","261","3.4","9.2","0.00","0.00"
"09:34:59","56.3","45.4","66.7","30.00","275","2.7","7","0.00","0.00"
"09:39:59","56.5","45.8","67.3","30.00","279","2.2","7","0.00","0.00"
"09:44:58","56.7","45.6","66.3","30.00","276","2.8","8.1","0.00","0.00"
"09:49:57","57","45.9","66.6","30.00","267","2.9","9.2","0.00","0.00"
"09:54:56","57.1","45.3","64.6","30.00","268","3.6","11.5","0.00","0.00"
"09:59:59","57.3","45.1","63.9","30.00","319","3.9","14","0.00","0.00"
"10:04:57","57.4","45","63.4","30.00","305","4.8","12","0.00","0.00"
"10:09:58","57.5","45.2","63.3","30.00","320","5.8","15","0.00","0.00"
"10:14:56","57.7","45.4","63.6","30.00","286","5.2","15","0.00","0.00"
"10:19:59","57.9","45.3","62.9","29.98","302","5.5","15","0.00","0.00"
"10:24:58","58.1","46","64.1","29.98","287","4.3","14","0.00","0.00"
"10:29:56","58.4","45.8","62.9","29.98","293","5.8","15","0.00","0.00"
"10:34:56","58.5","46.3","63.9","29.98","303","4","11.5","0.00","0.00"
"10:39:59","58.9","46","62.3","29.98","310","5.8","15","0.00","0.00"
"10:44:59","59","45.5","60.7","29.98","320","6.3","15","0.00","0.00"
"10:49:58","59.3","46.1","61.6","29.98","299","5.7","17","0.00","0.00"
"10:54:56","59.4","45.5","60","29.98","284","5.4","14","0.00","0.00"
"10:59:56","59.6","45.5","59.6","29.98","315","5.6","16.1","0.00","0.00"
"11:04:56","59.8","45.8","59.8","29.98","305","5","11.5","0.00","0.00"
"11:09:57","59.9","45.6","59.1","29.98","325","5.2","11.5","0.00","0.00"
"11:14:58","60.1","45.5","58.5","29.98","312","5.2","11.5","0.00","0.00"
"11:19:57","60.4","45.8","58.6","29.98","319","5","14","0.00","0.00"
"11:24:56","60.5","45.4","57.5","29.98","309","4.5","12","0.00","0.00"
"11:29:58","60.4","45.4","57.7","29.98","323","5.2","13","0.00","0.00"
"11:34:57","60.6","45.6","57.7","29.98","312","6.6","15","0.00","0.00"
"11:39:57","60.7","44.9","56","29.98","326","7.1","18.4","0.00","0.00"
"11:44:57","60.9","45.5","56.9","29.98","294","5.9","14","0.00","0.00"
"11:49:59","61","44.5","54.6","29.98","308","5.9","15","0.00","0.00"
"11:54:59","61.2","45.2","55.7","29.98","303","5.2","12","0.00","0.00"
"11:59:57","61.5","45.6","56","29.98","289","5.9","12","0.00","0.00"
"12:04:59","61.6","45.1","54.6","29.98","312","6.6","15","0.00","0.00"
"12:09:56","61.5","45.4","55.4","29.98","284","6.2","15","0.00","0.00"
"12:14:56","61.9","46.4","56.9","29.98","277","5","12","0.00","0.00"
"12:19:56","62.3","45.4","54","29.98","291","6.3","13","0.00","0.00"
"12:24:55","62.5","45.8","54.4","29.98","266","3.9","11.5","0.00","0.00"
"12:29:56","63.1","46.3","54.2","29.98","312","4.2","14","0.00","0.00"
"12:34:59","63.3","45.8","52.8","29.98","293","5.6","14","0.00","0.00"
"12:39:59","63.7","46.5","53.6","29.98","245","5.2","13.8","0.00","0.00"
"12:44:58","64","46","52","29.98","290","3.8","11","0.00","0.00"
"12:49:56","64.2","45.5","50.6","29.97","262","5","16.1","0.00","0.00"
"12:54:56","63.9","45","50.2","29.97","317","5.2","13.8","0.00","0.00"
"12:59:59","63.5","44.8","50.6","29.97","308","5.2","12","0.00","0.00"
"13:04:58","63.4","45","51.1","29.96","317","5.8","15","0.00","0.00"
"13:09:59","63.2","44.6","50.8","29.96","319","5","15","0.00","0.00"
"13:14:59","63.4","45.6","52.4","29.97","323","3.2","10.4","0.00","0.00"
"13:19:59","63.7","45.1","50.7","29.97","299","5","10.4","0.00","0.00"
"13:24:58","63.2","44.1","49.7","29.97","293","3.5","13","0.00","0.00"
"13:29:58","62.5","43.3","49.5","29.97","314","6.4","13","0.00","0.00"
"13:34:57","61.9","43.8","51.3","29.96","322","3.8","13","0.00","0.00"
"13:39:58","61.7","43.6","51.5","29.96","276","4.4","12","0.00","0.00"
"13:44:57","61.6","42.9","50.3","29.96","297","6.3","17.3","0.00","0.00"
"13:49:58","61.7","43.7","51.6","29.96","261","2.7","11.5","0.00","0.00"
"13:54:57","62.6","44.7","52","29.96","272","2.9","7","0.00","0.00"
"13:59:58","63.9","45.5","51.3","29.96","142","2.8","11.5","0.00","0.00"
"14:04:56","64.4","44.3","48","29.95","296","4.3","10.4","0.00","0.00"
"14:09:57","64.2","44.4","48.7","29.95","277","3.2","9.2","0.00","0.00"
"14:14:59","63.3","42.4","46.3","29.95","305","5.8","18.4","0.00","0.00"
"14:19:56","62.4","42.5","48","29.95","319","3.9","10.4","0.00","0.00"
"14:24:56","62","42.3","48.6","29.95","306","2.9","10","0.00","0.00"
"14:29:58","62","42.4","48.6","29.95","312","4.8","15","0.00","0.00"
"14:34:57","62.5","43.5","49.9","29.95","290","3.2","11.5","0.00","0.00"
"14:39:58","62.6","44","50.8","29.95","273","1.9","6.9","0.00","0.00"
"14:44:59","62.4","44","50.9","29.95","216","2.2","7","0.00","0.00"
"14:49:59","62.2","44.2","51.7","29.95","323","1.8","6.9","0.00","0.00"
"14:54:59","62.3","44.2","51.8","29.95","239","2.9","13","0.00","0.00"
"14:59:59","62.3","42.8","48.9","29.95","273","4","14","0.00","0.00"
"15:04:57","62.1","41.8","47.3","29.95","291","3.5","14","0.00","0.00"
"15:09:59","61.6","42.6","49.6","29.95","258","2.8","10.4","0.00","0.00"
"15:14:56","61.2","42.1","49.2","29.95","264","2.4","6.9","0.00","0.00"
"15:19:59","61.1","42.5","50.5","29.95","325","1.4","5","0.00","0.00"
"15:24:58","61","41.9","49.4","29.95","296","3.5","10","0.00","0.00"
"15:29:58","61","42.7","50.9","29.95","291","2.3","9.2","0.00","0.00"
"15:34:58","61.3","43.3","51.4","29.95","290","2","5","0.00","0.00"
"15:39:59","61.7","42.8","50","29.95","236","2.8","7","0.00","0.00"
"15:44:58","61.6","42.3","49.1","29.95","284","3.2","7","0.00","0.00"
"15:49:58","61.4","42.7","50.3","29.95","257","2.7","11","0.00","0.00"
"15:54:57","61.1","42","49.5","29.95","302","3.5","11.5","0.00","0.00"
"15:59:56","60.9","42.8","51.3","29.95","265","3.2","11.5","0.00","0.00"
"16:04:58","60.8","42.4","50.8","29.95","282","2.6","7","0.00","0.00"
"16:09:59","61.2","42.9","50.9","29.95","302","2.8","10.4","0.00","0.00"
"16:14:59","61.4","42.2","49.3","29.95","296","2.7","7","0.00","0.00"
"16:19:59","61.5","42.8","50.2","29.95","252","3.5","10","0.00","0.00"
"16:24:58","61.4","42.4","49.7","29.95","265","4.2","10.4","0.00","0.00"
"16:29:59","61","41.9","49.4","29.95","284","2.7","7","0.00","0.00"
"16:34:57","60.6","41.4","49.2","29.95","282","3.9","14","0.00","0.00"
"16:39:57","60.4","40.9","48.8","29.95","280","4.3","11.5","0.00","0.00"
"16:44:59","60.2","41.3","49.7","29.95","265","2.5","6.9","0.00","0.00"
"16:49:56","60","40.9","49.2","29.95","277","3.9","15","0.00","0.00"
"16:54:52","59.9","41.2","50.1","29.95","240","3.8","10","0.00","0.00"
"16:59:56","59.9","40.6","48.8","29.96","261","4.1","10.4","0.00","0.00"
"17:04:58","60","40.6","48.6","29.96","282","3.6","10.4","0.00","0.00"
"17:09:59","60","40.7","49","29.96","262","3.7","10.4","0.00","0.00"
"17:14:57","60","41.4","50.2","29.96","309","2.3","9.2","0.00","0.00"
"17:19:58","59.9","41.8","51.1","29.96","312","2","7","0.00","0.00"
"17:24:58","60.3","42","50.8","29.96","251","2.3","7","0.00","0.00"
"17:29:57","60.7","41.7","49.5","29.96","266","2.5","7","0.00","0.00"
"17:34:59","60.7","41.9","49.9","29.96","258","2.9","6.9","0.00","0.00"
"17:39:57","60.5","42.4","51.1","29.96","256","1.1","4","0.00","0.00"
"17:44:58","60.2","42.3","51.5","29.97","241","1.5","4","0.00","0.00"
"17:49:59","59.8","42.2","52.4","29.97","238","2.1","6","0.00","0.00"
"17:54:56","59.2","42.1","53.1","29.97","261","3","9.2","0.00","0.00"
"17:59:56","58.7","42.1","54","29.97","243","1.7","4","0.00","0.00"
"18:04:58","58.3","42.2","55","29.97","221","1.6","4","0.00","0.00"
"18:09:56","58.1","42.1","55.3","29.97","219","0.5","3.5","0.00","0.00"
"18:14:58","57.8","41.9","55.4","29.98","219","0.6","3","0.00","0.00"
"18:19:58","57.6","41.7","55.4","29.98","257","1.2","7","0.00","0.00"
"18:24:56","57.4","42.1","56.6","29.98","248","1.5","4","0.00","0.00"
"18:29:58","57.1","41.9","56.8","29.99","243","1","4","0.00","0.00"
"18:34:56","57","41.2","55.4","29.99","264","1.2","3.5","0.00","0.00"
"18:39:56","56.9","41.1","55.3","29.99","291","1.6","5","0.00","0.00"
"18:44:58","56.9","40.8","54.7","29.99","258","1.1","3.5","0.00","0.00"
"18:49:57","56.9","41","55.4","29.99","254","0.8","3.5","0.00","0.00"
"18:54:59","56.7","41.9","57.4","29.99","256","0.5","3.5","0.00","0.00"
"18:59:56","56.5","41.4","57.1","30.00","254","0.9","2.3","0.00","0.00"
"19:04:56","56.3","41.4","57.3","30.00","254","0.3","2.3","0.00","0.00"
"19:09:58","56.2","41.8","58.5","30.00","254","0.3","2.3","0.00","0.00"
"19:14:56","55.9","41.3","57.9","30.00","303","1.3","4","0.00","0.00"
"19:19:59","55.9","41.4","58.2","30.00","301","0.2","2.3","0.00","0.00"
"19:24:57","55.7","41.8","59.4","30.00","301","0","0","0.00","0.00"
"19:29:56","55.3","41.8","60.2","30.00","268","0.4","3.5","0.00","0.00"
"19:34:58","54.9","41.6","60.7","30.00","264","1.1","3.5","0.00","0.00"
"19:39:56","54.7","41.2","60.1","30.00","270","0.8","3.5","0.00","0.00"
"19:44:58","54.5","41.6","61.6","30.00","270","0.2","1.2","0.00","0.00"
"19:49:56","54.2","42","63.1","30.00","270","0","0","0.00","0.00"
"19:54:58","53.7","42.1","64.6","30.00","270","0.1","1.2","0.00","0.00"
"19:59:59","53.1","42.4","66.9","30.01","270","0.2","1.2","0.00","0.00"
"20:04:59","52.6","42.5","68.6","30.01","270","0","0","0.00","0.00"
"20:09:57","52","42.9","71","30.01","270","0","0","0.00","0.00"
"20:14:56","51.6","43.3","73.3","30.01","270","0","0","0.00","0.00"
"20:19:57","51.1","43.1","74","30.01","270","0","0","0.00","0.00"
"20:24:55","50.6","43","75","30.01","270","0","0","0.00","0.00"
"20:29:57","50.2","42.6","75","30.01","270","0","0","0.00","0.00"
"20:34:59","49.8","42.6","76.1","30.01","270","0","0","0.00","0.00"
"20:39:58","49.4","42.7","77.6","30.01","270","0","0","0.00","0.00"
"20:44:57","49.1","42.6","78.2","30.02","270","0.5","2","0.00","0.00"
"20:49:59","48.8","42.8","79.7","30.02","270","0.4","2.3","0.00","0.00"
"20:54:56","48.6","42.7","80","30.02","270","0","0","0.00","0.00"
"20:59:58","48.4","42.7","80.7","30.02","270","0","0","0.00","0.00"
"21:04:58","48","42.5","81.1","30.02","270","0","0","0.00","0.00"
"21:09:56","47.7","42.5","82","30.02","270","0","0","0.00","0.00"
"21:14:59","47.4","42.3","82.5","30.02","270","0","0","0.00","0.00"
"21:19:56","47.1","42.3","83.4","30.02","270","0","0","0.00","0.00"
"21:24:58","46.9","42.5","84.5","30.02","270","0","0","0.00","0.00"
"21:29:59","46.8","42.5","85","30.02","270","0","0","0.00","0.00"
"21:34:56","46.7","42.4","85","30.02","270","0","0","0.00","0.00"
"21:39:56","46.6","42.5","85.6","30.02","270","0","0","0.00","0.00"
"21:44:58","46.6","42.6","86","30.03","270","0","0","0.00","0.00"
"21:49:56","46.5","42.7","86.5","30.03","270","0","0","0.00","0.00"
"21:54:58","46.4","42.7","87","30.03","270","0","0","0.00","0.00"
"21:59:59","46.4","42.7","87","30.03","270","0","0","0.00","0.00"
"22:04:59","46.4","42.9","87.6","30.03","270","0","0","0.00","0.00"
"22:09:57","46.3","42.8","87.7","30.03","270","0","0","0.00","0.00"
"22:14:57","46.1","42.7","88","30.03","270","0","0","0.00","0.00"
"22:19:59","46.1","42.7","88","30.03","270","0","0","0.00","0.00"
"22:24:58","45.9","42.5","88","30.03","270","0","0","0.00","0.00"
"22:29:57","45.6","42.3","88.1","30.03","270","0","0","0.00","0.00"
"22:34:56","45.3","42.2","88.7","30.03","270","0","0","0.00","0.00"
"22:39:58","45.2","42.3","89.4","30.03","270","0","0","0.00","0.00"
"22:44:57","45.2","42.4","90","30.03","270","0","0","0.00","0.00"
"22:49:56","45.2","42.4","90","30.03","270","0","0","0.00","0.00"
"22:54:58","45.1","42.3","90","30.03","270","0","0","0.00","0.00"
"22:59:59","45.1","42.3","90","30.04","270","0","0","0.00","0.00"
"23:04:58","45","42.2","90","30.04","270","0","0","0.00","0.00"
"23:09:57","45","42.2","90","30.04","270","0","0","0.00","0.00"
"23:14:56","44.8","42","90","30.04","270","0","0","0.00","0.00"
"23:19:58","44.7","41.9","90","30.04","270","0","0","0.00","0.00"
"23:24:56","44.5","41.7","90","30.04","270","0","0","0.00","0.00"
"23:29:57","44.3","41.7","90.3","30.04","270","0","0","0.00","0.00"
"23:34:55","44.2","41.7","91","30.04","270","0","0","0.00","0.00"
"23:39:59","44.1","41.6","91","30.04","270","0","0","0.00","0.00"
"23:44:56","44","41.5","91","30.04","270","0","0","0.00","0.00"
"23:49:57","44.1","41.6","91","30.03","270","0","0","0.00","0.00"
"23:54:59","44.2","41.7","91","30.03","270","0","0","0.00","0.00"
"23:59:56","44.5","41.9","90.7","30.03","270","0","0","0.00","0.00"
